Location: Beaurecueil
(43.5122°N, 5.5450°E)
Time: 00:57:19
(UTC+00:00)

CSL-04 Rocket - Pass Details

Date: 18 September 2020
Orbit: 806 x 860 km, 98.9° (Epoch: 26 October)

Event Time Altitude Azimuth Distance (km) Brightness Sun altitude
Rises 18:24:48 0° 160° (SSE) 3,349 6.5 -8.6°
Reaches altitude 10° 18:27:07 10° 159° (SSE) 2,428 5.8 -9.0°
Maximum altitude 18:32:30 79° 74° (ENE) 858 3.7 -9.9°
Drops below altitude 10° 18:38:00 10° 348° (NNW) 2,480 6.5 -10.9°
Sets 18:40:24 0° 348° (NNW) 3,426 7.2 -11.3°
